Regional Weather Roundup
Issued by NWS Lake Charles, LA

Home | Current Version | Previous Version | Text Only | Print | Product List | Glossary On
Versions: 1 2 3 4 5 6 7 8 9 10 11 12 13 14 15 16 17 18 19 20 21 22 23 24 25 26 27
000
ASUS44 KLCH 300110
RWRLCH
REGIONAL WEATHER ROUNDUP
NATIONAL WEATHER SERVICE LAKE CHARLES LA
800 PM CDT SUN MAY 29 2016

Note: "fair" indicates few or no clouds below 12,000 feet with no
significant weather and/or obstructions to visibility.


ACROSS SOUTHEAST TEXAS

CITY           SKY/WX    TMP DP  RH WIND       PRES   REMARKS
BEAUMONT       PTCLDY    79  72  79 S5        30.01R
BEAUMONT CITY  FAIR      81  72  74 S3        30.02R
ORANGE         PTCLDY    81  71  72 S7        30.03R
JASPER         CLEAR     80  71  75 CALM      30.03S
$$

ACROSS CENTRAL LOUISIANA

CITY           SKY/WX    TMP DP  RH WIND       PRES   REMARKS
LEESVILLE      CLEAR     82  69  64 E3        30.02R
FULLERTON      FAIR      79  69  71 CALM      29.99
ALEXANDRIA INT CLEAR     82  72  71 S3        30.00R
ESLER FIELD    CLEAR     77  73  87 CALM      30.02R
DERIDDER       FAIR      84  71  64 SE3       30.04R
OAKDALE        CLOUDY    81  76  82 CALM      30.01S
OPELOUSAS      FAIR      81  72  74 E8        30.01S
$$

ACROSS SOUTHWEST AND SOUTH CENTRAL LOUISIANA

CITY           SKY/WX    TMP DP  RH WIND       PRES   REMARKS
SULPHUR        CLEAR     82  74  77 S6        30.02R
LAKE CHARLES   MOCLDY    81  74  79 SW6       30.01S
CHENNAULT INT  CLEAR    N/A N/A N/A SE7         N/A
CAMERON PHI    PTCLDY    81  73  78 SW7       30.05R
DEQUINCY       FAIR      82  71  68 CALM      30.01S
JENNINGS       FAIR      82  70  65 E5        30.01S
LAFAYETTE      MOCLDY    84  72  67 CALM      30.01S
NEW IBERIA     CLOUDY    84  68  58 E5        30.02R
ABBEVILLE      FAIR      82  70  67 CALM      30.01S
PATTERSON      PTCLDY    79  72  79 SE6       30.02R
SALT POINT       N/A     80  73  79 CALM      30.01R
$$

SELECTED SITES ACROSS THE REGION

CITY           SKY/WX    TMP DP  RH WIND       PRES   REMARKS
HOUSTON BUSH   PTCLDY    80  69  69 SE10      30.01R
HOUSTON HOBBY  PTCLDY    82  70  66 S7        30.01R
GALVESTON      PTCLDY    79  73  82 SE9       30.04R
COLLEGE STAT   CLEAR     84  72  67 SE6       29.99S
CONROE         PTCLDY    83  71  67 S10       30.02R
HUNTSVILLE     CLEAR     86  68  54 CALM      30.00S
LUFKIN         CLEAR     82  69  64 SE3       30.01R
SHREVEPORT     PTCLDY    84  71  65 W6        30.01R
MONROE         CLEAR     82  73  74 CALM      30.03R
NATCHEZ MS     PTCLDY    81  70  69 CALM      30.04R
BATON ROUGE    PTCLDY    83  70  64 CALM      30.01S
N.O. INTL ARPT MOCLDY    82  72  71 S7        30.01F
SLIDELL        CLEAR     80  70  71 CALM      30.02S
$$

MARINE REPORTS

STATION/POSITION TIME  SKY/WX   TEMP    WIND        PRES    VSBY
                                AIR SEA DIR/SP/G
                 (UTC)          (F)     (DEG/KT/KT) (MB)    (MI)
BUOY 30 S HIGH I 0050            80 82  160/  8/ 10 1016.6R
WVE H/P(F/S)=  2/ 6

SEA RIM ST PARK  0100            80     190/  8/  9 1017.1R
PORT ARTHUR      0000               80              1016.5F
SABINE PASS N    0000            81 81              1017.7F
TEXAS POINT      NOT AVBL
CALCASIEU PASS   0000            81 82              1015.6F
LK CHARLES BEACH 0000            86 78              1016.6F
MARSH ISLAND     0000            84                   N/A
FRESH WATER LOCK 0000            83 84              1016.8F
AMERADA PASS     0000            80 80              1016.3F
$$




USA.gov is the U.S. government's official web portal to all federal, state and local government web resources and services.